Regional Weather Roundup
Issued by NWS

Home | Current Version | Previous Version | Text Only | Print | Product List | Glossary On
Versions: 1 2 3 4 5 6 7 8 9 10 11 12 13 14 15 16 17 18 19 20 21 22 23 24 25 26 27 28 29 30 31 32 33 34 35 36 37 38 39 40 41 42 43 44 45 46 47 48 49 50
000
ASUS45 KABQ 281310
RWRNM
WEATHER ROUNDUP FOR NEW MEXICO
NATIONAL WEATHER SERVICE ALBUQUERQUE NM
700 AM MDT MON JUL 28 2014

NOTE: "FAIR" MEANS FEW OR NO CLOUDS BELOW 12,000 FEET AGL WITH NO
       SIGNIFICANT WEATHER OR OBSTRUCTIONS TO VISION.

      THIS PRODUCT IS RELEASED AS TWO VERSIONS.  ONE VERSION NEAR
      THE TOP OF THE HOUR CONTAINING PRELIMINARY DATA FROM ALBUQUERQUE
      AND OTHER STATIONS.  A FINAL VERSION WITH ADDITIONAL DATA IS
      ISSUED ABOUT 10 MINUTES AFTER THE HOUR.

NMZ501-503-504-510>518-281400-
NORTHWEST PLATEAU/NORTHCENTRAL MOUNTAINS

CITY           SKY/WX    TMP DP  RH WIND       PRES   REMARKS
FARMINGTON     MOCLDY    64  57  78 CALM      30.37R
LOS ALAMOS     MOCLDY    59  50  71 NW3       30.51S
SANTA FE       PTCLDY    59  56  89 N6        30.45R
TAOS           PTCLDY    55  50  82 E6        30.52R
ANGEL FIRE     PTSUNNY   50  49  95 CALM      30.60S

$$
NMZ402-403-502-505>509-281400-
WESTCENTRAL MOUNTAINS/SOUTHWEST MOUNTAINS

CITY           SKY/WX    TMP DP  RH WIND       PRES   REMARKS
GALLUP         CLOUDY    61  53  75 SE7       30.44R
SILVER CITY    CLOUDY    66  57  72 E7        30.35R

$$
NMZ407-409-411-412-281400-
SOUTHERN DESERTS

CITY           SKY/WX    TMP DP  RH WIND       PRES   REMARKS
LORDSBURG      FAIR      66  61  82 S6        30.24R
DEMING         CLOUDY    70  63  78 NE9       30.25S
LAS CRUCES     CLOUDY    71  61  70 CALM      30.29R
HOLLOMAN AFB   CLOUDY    70  66  88 CALM      30.27R
ALAMOGORDO     CLOUDY    66  66 100 SW3       30.29R
T OR C         CLOUDY    70  60  70 SW6       30.33R

$$
NMZ519>523-281400-
CENTRAL VALLEYS/CENTRAL HIGHLANDS

CITY           SKY/WX    TMP DP  RH WIND       PRES   REMARKS
ALBUQUERQUE    MOCLDY    72  52  49 E15       30.38R
DOUBLE EAGLE   MOCLDY    64  54  68 N7        30.41R
MORIARTY ARPT  PTSUNNY   59  53  79 S5        30.49R
CLINES CORNERS PTCLDY    56  52  86 E8        30.51R
BELEN          FAIR      69  56  61 SW7       30.37R
SOCORRO        FAIR      73  56  57 NE5       30.35R

$$
NMZ524>526-539-540-281400-
SOUTHCENTRAL MOUNTAINS

CITY           SKY/WX    TMP DP  RH WIND       PRES   REMARKS
RUIDOSO        RAIN      55  55 100 CALM      30.56R

$$
NMZ527>531-281400-
NORTHEAST HIGHLANDS/NORTHEAST PLAINS

CITY           SKY/WX    TMP DP  RH WIND       PRES   REMARKS
LAS VEGAS      CLOUDY    56  53  90 CALM      30.51R
RATON          NOT AVBL
CLAYTON        CLOUDY    61  58  90 SE8       30.39F FOG

$$
NMZ532>537-281400-
EASTCENTRAL PLAINS

CITY           SKY/WX    TMP DP  RH WIND       PRES   REMARKS
TUCUMCARI      CLOUDY    64  57  78 NE10      30.36R
CANNON AFB     MOSUNNY   64  56  74 NE15      30.36R
CLOVIS AIRPORT NOT AVBL

$$
NMZ028-029-538-281400-
SOUTHEAST PLAINS

CITY           SKY/WX    TMP DP  RH WIND       PRES   REMARKS
ROSWELL        CLOUDY    76  60  57 W21       30.30R
ARTESIA        CLOUDY    73  55  53 NW21G29   30.28R
CARLSBAD       MOCLDY    79  59  50 NW16G28   30.23R
HOBBS          SUNNY     72  55  56 CALM      30.27R


$$


USA.gov is the U.S. government's official web portal to all federal, state and local government web resources and services.